User: anonymous   Login
Location: Unspecified
(0.0000°N, 0.0000°E)
Time: 09:55:26
(UTC+02:00)
Language:

ARIANE 5 R/B - Orbit

View from above orbital plane
View from above orbital plane
View from above satellite
View from above satellite

Ground track
Ground track

The orbit data is extracted from the following two-line orbital elements,

1 28379U 04027B   18175.76264073 +.00000041 +00000-0 +76337-3 0  9993
2 28379 006.5344 201.0517 7279528 322.1985 280.2587 02.07930617105899
Epoch (UTC): 24 June 2018 18:18:12
Eccentricity: 0.7279528
inclination: 6.5344°
perigee height: 676 km
apogee height: 38426 km
right ascension of ascending node: 201.0517°
argument of perigee: 322.1985°
revolutions per day: 2.07930617
mean anomaly at epoch: 280.2587°
orbit number at epoch: 10589

The dashed part of the orbit path shows where the satellite is in the earth's shadow,  

DLR